Location: Runa
(38.1429°N, 80.8510°W)
Time: 04:56:22
(UTC+00:00)

HTV-X1 - Visible Passes

Search period start: 20 May 2026 00:00
Search period end: 30 May 2026 00:00
Orbit: 372 x 382 km, 51.6° (Epoch: 19 May)

Date Brightness Start Highest point End Pass type
(mag) Time Alt. Az. Time Alt. Az. Time Alt. Az.
20 May ? 02:51:56 10° NNW 02:53:46 15° NNE 02:54:08 14° NNE visible
21 May ? 03:25:57 10° NW 03:27:16 21° NNW 03:27:16 21° NNW visible
22 May ? 02:25:11 10° NNW 02:27:31 19° NNE 02:28:18 18° NE visible
23 May ? 01:24:41 10° N 01:26:00 12° NNE 01:27:18 10° NE visible
23 May ? 02:59:19 10° NW 03:01:23 37° NNW 03:01:23 37° NNW visible
24 May ? 01:58:18 10° NNW 02:01:00 27° NNE 02:02:23 19° ENE visible
24 May ? 03:34:11 10° WNW 03:34:27 12° WNW 03:34:27 12° WNW visible
25 May ? 02:32:33 10° NW 02:35:27 71° WSW 02:35:27 71° WSW visible
26 May ? 01:31:18 10° NW 01:34:15 41° NE 01:36:27 15° ESE visible
26 May ? 03:07:53 10° W 03:08:31 13° W 03:08:31 13° W visible
27 May ? 02:05:42 10° WNW 02:08:37 40° SW 02:09:31 31° S visible
28 May ? 01:04:10 10° NW 01:07:14 70° NE 01:10:17 10° ESE visible
29 May ? 01:38:50 10° WNW 01:41:23 24° SW 01:43:38 12° S visible
